Theta_e
324 331 346 353 357 357 357 356 355 355 355 355 355 355 355 354 354 354 354 353 353 354 354 353 351 348 348 346 347 349 348 348 348 349 349 348 348 348 348 348 348 347 349
322 329 340 351 353 356 356 355 354 354 355 355 355 355 355 355 354 354 354 352 353 354 354 352 350 351 349 348 348 348 347 347 346 347 347 348 349 348 347 348 348 348 347
319 327 336 346 353 353 354 354 353 353 354 355 355 354 355 355 354 355 354 352 353 354 354 352 353 352 350 348 348 348 348 346 345 344 345 344 346 347 347 348 348 347 347
315 321 334 341 350 352 353 353 353 352 353 355 355 354 354 354 354 354 354 352 353 354 355 353 353 352 350 348 348 347 347 345 342 341 342 343 343 346 347 346 346 346 346
311 315 324 341 347 351 351 352 352 352 353 354 355 354 355 355 354 353 353 352 353 353 355 355 353 352 349 348 347 347 346 343 340 337 339 342 344 346 347 347 346 347 345
309 311 318 332 342 348 349 351 352 352 352 353 355 355 355 354 353 352 352 351 351 352 354 354 352 350 349 348 346 346 344 342 339 338 336 339 340 347 347 346 346 345 345
307 309 312 326 333 342 346 348 350 351 351 352 353 355 354 353 352 352 351 350 351 351 351 352 351 349 348 346 345 344 342 339 338 339 339 339 341 346 346 346 345 345 346
306 307 310 314 318 327 332 343 346 348 349 350 352 353 353 352 351 351 351 350 350 350 349 350 349 347 346 344 343 341 338 335 335 338 340 339 341 343 344 344 344 343 343
305 305 308 309 311 315 320 325 338 343 346 347 349 350 349 349 349 349 348 349 350 350 349 349 346 345 345 343 341 339 335 334 341 339 337 339 341 346 345 344 343 343 343
301 302 304 307 309 311 314 319 329 335 339 340 342 341 340 342 343 342 339 343 348 348 347 346 344 344 344 343 340 334 331 331 341 340 339 339 339 340 339 338 338 339 341
297 299 301 303 306 308 311 316 322 330 332 334 336 333 334 352 350 346 340 339 344 344 345 344 343 341 340 337 334 330 329 340 340 339 339 335 340 339 338 337 337 337 337
295 297 299 300 302 305 306 312 318 330 342 345 345 346 348 349 351 348 339 332 338 338 342 342 341 336 334 342 338 330 340 340 338 337 336 333 337 336 335 333 334 335 335
295 296 297 299 301 302 305 309 314 320 340 341 343 345 347 346 348 348 348 343 347 332 346 341 338 339 341 340 338 338 339 338 336 334 330 330 333 331 329 328 327 330 332
294 295 297 298 299 300 303 306 309 316 326 336 343 340 343 343 345 346 345 346 346 345 343 339 337 337 337 340 337 335 336 335 333 331 327 324 328 328 327 326 326 327 331
294 295 296 298 298 298 300 305 308 312 319 335 341 345 341 342 342 344 344 345 344 344 340 337 334 332 333 335 337 333 332 332 331 329 326 318 325 328 327 327 327 327 330
294 295 297 297 298 299 299 303 307 311 316 327 336 341 344 342 341 340 340 340 342 341 339 332 329 328 330 328 328 329 329 327 326 325 323 322 322 327 328 327 327 327 330
294 295 296 297 298 298 298 301 306 311 316 320 332 336 341 339 337 338 338 337 339 338 333 329 327 324 321 319 320 320 322 323 321 320 320 320 321 319 326 328 327 326 329
294 294 296 296 298 299 299 301 304 308 313 319 328 335 336 341 336 334 336 335 334 331 328 323 322 318 318 317 312 313 315 317 317 316 317 319 321 323 324 327 329 327 327
295 295 295 296 297 299 300 303 304 308 311 317 322 332 334 337 339 333 334 332 326 322 322 319 318 318 317 316 311 307 309 311 311 310 314 318 321 324 325 319 320 321 326
294 295 295 296 296 297 300 301 303 304 308 314 318 327 333 334 335 333 331 325 321 317 316 316 314 314 313 310 304 301 305 307 307 308 311 317 321 323 324 323 322 318 318
292 293 294 294 295 297 298 298 300 302 306 312 317 324 330 331 331 331 325 318 318 314 311 311 307 303 299 300 298 297 298 301 304 305 307 314 317 318 319 320 321 319 318
288 289 291 293 294 295 297 298 300 300 303 309 317 325 328 329 329 328 318 314 313 312 308 305 303 299 298 300 299 297 293 296 301 301 304 307 313 314 313 312 314 315 317
286 287 289 291 293 294 295 297 299 301 302 304 318 323 326 327 327 321 316 314 311 308 304 304 305 304 298 299 300 298 293 294 297 298 299 302 306 309 310 308 307 308 311
285 286 288 289 291 293 295 295 295 296 298 305 312 322 322 326 325 319 317 314 312 307 305 304 305 305 302 297 298 297 297 298 295 291 297 299 302 304 306 307 306 306 306
284 285 287 289 291 292 293 294 295 295 298 305 312 319 320 322 322 317 316 313 308 307 304 303 303 302 303 300 300 295 295 296 298 297 293 295 298 301 304 306 306 306 305
284 285 285 287 289 291 293 294 295 296 299 301 309 314 318 319 318 314 312 310 308 306 303 303 303 302 302 301 300 297 295 295 295 298 296 296 297 298 301 303 305 305 306
Wind_Speed
15 15 6 17 19 20 20 22 23 21 21 21 21 20 21 20 20 19 19 20 21 19 19 19 17 18 16 18 18 17 15 13 12 13 14 15 16 16 14 10 10 14 13
15 16 3 14 19 18 18 20 21 21 21 22 22 21 21 21 21 20 20 19 21 20 19 19 19 17 16 17 17 16 16 14 12 11 12 14 16 16 14 7 12 15 14
17 16 15 9 16 17 17 18 19 20 21 22 23 22 22 22 22 21 21 20 19 21 20 20 19 19 17 16 15 15 16 15 13 11 13 13 14 17 15 14 15 16 15
17 18 16 13 14 16 18 17 19 21 22 21 22 23 23 22 23 23 21 21 20 20 21 22 20 20 19 16 15 15 17 16 13 10 10 13 14 16 17 16 16 16 15
18 19 19 16 15 17 18 18 19 20 21 22 22 23 23 23 24 24 22 22 22 21 22 22 21 20 20 18 17 15 17 17 15 12 11 12 12 15 18 17 16 14 12
19 20 21 21 19 19 18 20 20 20 21 22 23 24 25 25 25 25 23 23 22 21 21 23 22 20 20 19 17 17 16 17 15 12 12 10 11 15 17 14 12 10 11
19 18 20 20 22 22 21 21 22 22 23 23 23 24 25 25 25 25 25 24 22 22 20 22 23 20 19 19 18 18 16 16 13 12 11 13 12 15 17 16 15 14 13
20 19 18 19 23 23 26 21 23 23 23 22 23 24 26 25 26 26 25 25 24 23 22 20 23 22 19 19 19 18 15 12 12 13 12 10 13 16 17 16 15 14 13
19 18 16 17 19 20 20 26 19 23 24 22 21 22 25 24 25 25 26 27 25 23 22 20 21 21 21 20 19 16 14 11 13 9 9 8 11 18 17 16 15 14 14
20 19 17 16 17 17 17 20 20 18 20 20 17 16 19 22 25 26 24 26 26 24 22 21 22 21 21 20 18 15 13 8 13 12 9 8 9 10 12 12 11 9 11
17 19 17 17 17 16 17 15 20 16 16 17 17 15 14 16 19 23 22 23 25 23 22 22 22 22 18 16 18 16 16 10 11 9 7 12 13 14 13 12 12 11 11
23 24 17 17 17 16 13 15 14 18 12 15 17 19 15 19 17 18 19 20 22 20 22 22 22 17 18 13 11 15 11 12 10 9 7 13 14 15 14 12 12 12 12
21 19 22 19 18 17 14 11 8 8 9 10 17 17 16 14 12 12 10 10 14 15 12 13 13 11 17 14 11 12 11 12 8 7 10 13 15 15 14 14 13 13 13
21 22 21 21 18 17 12 11 11 9 11 10 13 18 14 11 13 11 10 13 14 11 14 12 10 12 14 15 15 13 15 11 8 7 10 10 14 16 15 14 14 14 14
22 21 20 19 19 16 16 11 11 11 9 12 13 15 14 14 13 12 12 12 12 12 13 12 11 11 12 14 14 13 15 14 13 7 8 8 11 15 16 16 15 15 16
21 20 18 19 19 17 15 17 12 10 11 12 12 14 17 13 13 13 13 13 13 13 12 11 13 12 11 10 11 13 15 13 13 11 8 9 6 11 15 16 16 16 17
20 21 20 19 19 20 19 17 13 10 10 10 12 17 16 16 15 15 13 13 13 13 14 12 12 11 9 7 10 9 11 13 12 12 10 9 8 4 9 15 17 17 18
21 21 21 17 18 20 19 15 13 11 10 10 12 13 15 16 16 14 14 12 11 10 12 13 13 12 11 11 8 8 8 10 12 12 10 9 8 8 6 11 12 16 17
21 21 21 21 20 19 19 14 15 16 13 10 10 12 16 17 16 12 12 12 12 10 11 11 12 13 13 11 10 8 7 9 10 9 12 10 10 10 8 9 10 8 4
17 19 20 18 20 19 14 13 11 12 14 12 10 12 18 13 16 15 10 12 13 11 9 10 13 9 9 12 10 8 8 8 7 7 10 9 10 10 10 10 7 4 6
17 17 17 19 21 15 12 12 12 13 12 12 11 16 18 15 15 15 9 10 14 14 14 15 11 16 6 8 12 7 6 7 8 6 7 7 9 9 9 8 6 5 4
19 18 19 19 20 17 12 12 11 11 12 13 12 14 17 16 15 14 14 13 13 11 14 16 19 11 7 11 6 4 6 3 4 5 5 6 9 7 7 7 7 7 5
19 19 19 19 19 18 20 12 13 11 12 14 12 12 15 18 16 13 13 15 14 12 13 15 16 16 14 7 15 4 6 5 9 3 4 5 8 7 7 7 7 6 6
20 19 21 21 20 19 22 17 20 13 14 15 13 12 12 17 18 16 18 16 15 11 14 15 15 15 15 17 9 1 2 6 5 6 4 4 5 7 8 6 6 6 6
20 19 19 21 20 20 21 21 16 16 14 13 13 16 15 16 16 16 17 16 15 12 13 15 13 14 17 15 14 10 3 2 2 4 6 6 3 5 6 7 5 6 7
18 18 18 20 20 20 21 23 22 20 18 16 16 12 10 12 12 16 17 16 16 15 17 15 13 11 16 16 12 9 4 5 4 4 5 7 8 6 6 6 7 6 6
Wind_Direction
347 338 227 225 208 199 195 183 177 176 176 174 171 172 168 168 165 166 164 159 157 163 158 157 161 157 151 146 145 146 141 138 131 123 126 127 125 123 122 124 134 114 122
349 347 347 237 223 210 201 191 182 177 179 176 176 175 173 171 170 169 167 167 163 162 164 159 164 163 155 153 153 148 142 142 124 120 117 121 123 125 126 118 100 111 113
5 358 344 238 237 218 209 197 188 182 181 181 179 176 177 175 173 173 170 169 170 161 165 162 160 156 154 153 151 147 129 131 134 132 150 135 127 127 124 107 112 116 115
4 3 3 330 251 232 212 206 196 186 182 184 183 179 179 177 176 176 173 172 173 168 163 164 162 155 150 153 153 141 133 133 132 145 167 136 136 135 131 126 125 123 120
2 3 8 339 294 255 216 212 200 193 188 184 186 182 182 180 177 177 175 176 177 175 165 167 162 157 152 156 155 147 141 137 143 185 148 143 140 142 136 132 134 133 142
3 360 358 356 333 289 240 214 204 200 194 189 186 187 185 183 181 177 177 178 179 179 174 167 161 160 155 157 158 153 148 143 163 148 152 138 146 139 133 127 122 115 119
351 355 353 353 348 327 287 236 215 204 202 193 190 187 187 186 183 179 177 181 182 180 181 167 159 159 161 158 159 155 153 159 164 151 149 163 147 147 140 132 130 128 124
337 342 345 350 348 351 336 283 231 214 206 203 193 188 186 187 185 181 179 182 182 183 181 172 159 156 164 162 158 156 152 186 166 149 154 154 137 154 147 143 138 137 131
324 329 332 338 339 339 335 326 264 226 214 207 203 193 188 186 186 184 181 182 183 183 182 172 161 159 164 162 158 153 155 185 158 154 160 144 173 154 141 138 141 137 137
315 316 319 323 325 331 329 317 289 246 219 208 205 203 193 185 186 189 188 185 183 182 181 171 162 165 167 162 156 148 151 190 160 158 159 129 129 148 154 156 156 124 123
307 302 305 308 311 316 317 320 320 244 228 213 205 199 201 198 195 190 192 185 185 182 179 170 164 166 164 156 150 149 154 177 162 167 164 136 157 159 153 156 152 158 156
309 311 310 306 302 305 308 316 319 309 245 230 221 212 208 208 206 200 191 179 183 182 177 173 162 157 159 170 163 154 184 176 169 168 154 149 156 160 159 166 160 157 152
294 294 302 308 304 299 299 303 306 309 283 246 228 219 213 213 214 205 197 190 188 179 178 173 163 168 183 176 169 175 182 176 169 164 148 151 160 164 167 167 166 165 158
285 285 290 293 297 296 291 287 293 297 305 258 232 221 214 207 210 202 198 192 191 183 184 177 175 174 182 177 169 173 172 177 169 162 154 161 158 164 169 167 167 167 162
275 279 283 284 289 293 288 282 278 283 290 281 249 223 213 209 205 201 198 190 188 184 181 176 174 168 175 179 174 173 176 172 166 167 158 168 164 166 168 169 168 169 166
276 275 276 278 281 284 281 277 272 270 281 280 258 236 222 211 210 204 198 193 189 184 180 171 171 167 168 171 170 173 173 167 165 164 157 163 164 176 170 169 170 169 170
280 281 279 276 276 277 276 275 269 263 265 276 270 244 227 217 219 201 196 195 188 186 174 169 171 160 153 159 164 164 166 164 162 164 161 163 166 197 179 171 170 169 174
281 279 280 275 272 277 275 274 272 264 259 263 267 246 228 217 201 215 195 189 184 179 178 169 169 162 163 165 156 159 162 164 161 160 163 164 174 173 184 158 166 167 175
284 279 278 275 270 270 271 268 266 268 261 257 267 253 232 219 203 195 198 191 162 168 179 176 174 172 167 171 159 150 146 157 162 160 161 170 167 171 161 97 99 84 138
296 290 279 271 268 267 271 272 267 264 261 250 251 250 236 218 203 191 215 165 166 159 171 174 167 163 162 161 136 126 144 145 154 164 162 162 168 162 160 151 142 113 59
294 287 286 286 272 264 260 260 254 256 257 249 240 246 233 220 202 192 173 170 163 168 170 170 152 146 115 137 124 95 75 113 144 161 161 170 166 163 154 161 166 166 144
294 291 284 276 274 270 258 257 254 252 257 254 246 237 222 206 196 190 164 167 170 168 168 169 156 143 119 159 154 129 133 94 148 151 171 188 171 165 161 165 170 172 179
290 289 284 279 275 272 266 255 255 246 251 255 240 231 217 207 192 166 166 165 167 164 166 170 168 163 158 165 182 140 158 167 141 126 187 193 182 176 176 169 176 175 181
294 290 283 278 270 268 261 253 249 242 245 240 236 227 214 203 189 170 165 169 171 164 166 175 177 176 155 164 163 74 340 125 173 143 168 201 202 192 183 181 180 182 183
294 288 286 276 266 266 261 248 238 239 248 249 233 222 206 194 183 167 170 167 162 163 166 171 188 176 169 163 180 151 180 101 149 145 136 174 195 213 202 191 175 182 192
297 291 286 284 271 268 258 245 234 236 241 234 231 216 205 191 173 167 166 167 163 163 164 163 166 184 168 163 167 167 181 148 143 137 110 159 170 186 193 196 187 188 189